This demonstration page uses our WeatherBlox Daily Observations layout. Learn more.

Hourly Observations for March 9, 2019

Temp ( °F °C ) Dew Point ( °F °C ) Humidity (%) Winds ( mph kmh ) Pressure ( in mb ) Visibility ( mi km ) Precip ( " mm )
12:15 am 00:15 Cloudy with Mist and Fog 32 0.1 32 0.1 100 100 ESE 17 28 29.62 1003 1 1.60934 0 0
12:35 am 00:35 Cloudy with Light Snow 32 0.1 32 0.1 100 100 ESE 17 28 29.61 1003 0.75 1.207005 0 0
12:55 am 00:55 Cloudy with Light Snow 32 0.2 32 0.2 100 100 ESE 17 28 29.58 1002 1 1.60934 0 0
1:15 am 01:15 Windy with Snow Likely 33 0.3 33 0.3 100 100 ESE 22 35 29.56 1001 0.75 1.207005 0 0
1:35 am 01:35 Windy with Snow Likely 33 0.5 33 0.5 100 100 ESE 20 31 29.54 1000 0.75 1.207005 0 0
1:55 am 01:55 Windy with Snow Likely 33 0.5 33 0.5 100 100 ESE 22 35 29.52 1000 0.75 1.207005 0 0
2:15 am 02:15 Windy with Snow Likely 33 0.5 33 0.5 100 100 ESE 21 33 29.5 999 1 1.60934 0 0
2:35 am 02:35 Cloudy with Mist and Fog 33 0.6 33 0.6 100 100 ESE 10 17 29.53 1000 1.25 2.011675 0 0
2:55 am 02:55 Cloudy with Mist and Fog 33 0.7 33 0.7 100 100 ESE 8 13 29.54 1000 1 1.60934 0 0
3:15 am 03:15 Cloudy with Mist and Fog 33 0.7 33 0.7 100 100 E 10 17 29.51 999 1 1.60934 0 0
3:35 am 03:35 Cloudy with Light Rain 33 0.6 33 0.6 100 100 E 8 13 29.5 999 1 1.60934 0 0
3:55 am 03:55 Cloudy with Light Rain 33 0.6 33 0.6 100 100 E 9 15 29.49 999 1 1.60934 0 0
4:15 am 04:15 Cloudy with Drizzle 33 0.5 33 0.5 100 100 E 8 13 29.48 998 1 1.60934 0 0
4:35 am 04:35 Cloudy with Light Drizzle 33 0.5 33 0.5 100 100 E 9 15 29.47 998 1.25 2.011675 0 0
4:55 am 04:55 Cloudy with Light Drizzle 33 0.5 33 0.5 100 100 ENE 9 15 29.46 998 1.25 2.011675 0.01 0.254
5:15 am 05:15 Cloudy with Light Drizzle 33 0.5 33 0.5 100 100 ENE 9 15 29.46 998 1.5 2.41401 0 0
5:35 am 05:35 Cloudy with Mist and Fog 33 0.5 33 0.5 100 100 NE 9 15 29.45 997 1.5 2.41401 0 0
5:55 am 05:55 Cloudy with Mist and Fog 33 0.5 33 0.5 100 100 NE 10 17 29.45 997 1.75 2.816345 0 0
6:15 am 06:15 Cloudy with Mist and Fog 33 0.4 33 0.4 100 100 NNE 8 13 29.45 997 1.75 2.816345 0 0
6:35 am 06:35 Cloudy with Mist and Fog 32 0.2 32 0.2 100 100 N 7 11 29.45 997 1.5 2.41401 0 0
6:55 am 06:55 Cloudy with Mist and Fog 32 0.2 32 0.2 100 100 N 7 11 29.46 998 1 1.60934 0 0
7:15 am 07:15 Cloudy with Mist and Fog 32 0.2 32 0.2 100 100 NNW 8 13 29.48 998 1 1.60934 0 0
7:35 am 07:35 Cloudy with Mist and Fog 32 0.2 32 0.2 100 100 NNW 10 17 29.48 998 0.75 1.207005 0 0
7:55 am 07:55 Cloudy with Mist and Fog 33 0.3 33 0.3 100 100 NNW 14 22 29.49 999 1 1.60934 0 0
8:15 am 08:15 Cloudy with Mist and Fog 33 0.5 33 0.5 100 100 NW 16 26 29.5 999 2 3.21868 0 0
8:35 am 08:35 Cloudy with Mist and Fog 33 0.5 33 0.5 100 100 NW 16 26 29.52 1000 2.5 4.02335 0 0
8:55 am 08:55 Cloudy with Mist and Fog 33 0.6 33 0.6 100 100 NW 17 28 29.54 1000 2.5 4.02335 0 0
9:15 am 09:15 Cloudy 33 0.7 33 0.7 100 100 NW 17 28 29.55 1001 7 11.26538 0 0
9:35 am 09:35 Cloudy 33 0.8 33 0.8 100 100 NW 17 28 29.56 1001 10 16.0934 0 0
9:55 am 09:55 Cloudy 34 1 34 1 100 100 NW 17 28 29.56 1001 10 16.0934 0 0
10:15 am 10:15 Cloudy 34 1.1 34 1.1 100 100 NW 18 30 29.56 1001 10 16.0934 0 0
10:35 am 10:35 Cloudy 35 1.5 35 1.5 100 100 NW 28 44 29.57 1001 10 16.0934 0 0
10:55 am 10:55 Cloudy 35 1.8 33 0.5 91 91 NW 23 37 29.59 1002 10 16.0934 0 0
11:15 am 11:15 Cloudy 36 2 32 0 87 87 NW 25 41 29.6 1003 10 16.0934 0 0
11:35 am 11:35 Cloudy 35 1.5 30 -1 84 84 NW 32 52 29.62 1003 10 16.0934 0 0
11:55 am 11:55 Mostly Cloudy 34 1.3 30 -1.2 84 84 NW 33 54 29.63 1003 10 16.0934 0 0
12:15 pm 12:15 Cloudy 34 1 29 -1.9 81 81 NW 30 48 29.65 1004 10 16.0934 0 0
12:35 pm 12:35 Mostly Cloudy 33 0.8 28 -2.1 81 81 NW 30 48 29.68 1005 10 16.0934 0 0
12:55 pm 12:55 Partly Cloudy 33 0.8 28 -2.1 81 81 NW 28 44 29.71 1006 10 16.0934 0 0
1:15 pm 13:15 Cloudy 33 0.5 27 -2.7 79 79 NW 36 57 29.72 1006 10 16.0934 0 0
1:35 pm 13:35 Cloudy 33 0.3 27 -2.8 80 80 NW 26 43 29.73 1007 10 16.0934 0 0
1:55 pm 13:55 Mostly Cloudy 32 0.1 26 -3.3 78 78 NW 29 46 29.73 1007 10 16.0934 0 0
2:15 pm 14:15 Mostly Cloudy 32 0 25 -4 75 75 NW 36 57 29.74 1007 10 16.0934 0 0
2:35 pm 14:35 Mostly Cloudy 32 0 25 -3.8 76 76 NW 37 59 29.74 1007 10 16.0934 0 0
2:55 pm 14:55 Mostly Cloudy 32 0.1 25 -3.7 76 76 NW 30 48 29.76 1008 10 16.0934 0 0
3:15 pm 15:15 Mostly Cloudy 32 0 26 -3.5 78 78 NW 31 50 29.77 1008 10 16.0934 0 0
3:35 pm 15:35 Cloudy 32 0.1 27 -3 80 80 NW 30 48 29.78 1009 10 16.0934 0 0
3:55 pm 15:55 Cloudy 32 0 26 -3.5 78 78 NW 31 50 29.8 1009 10 16.0934 0 0
4:15 pm 16:15 Cloudy 32 0.2 26 -3.4 77 77 NW 26 43 29.81 1010 10 16.0934 0 0
4:35 pm 16:35 Cloudy 33 0.4 27 -3 78 78 NW 25 41 29.83 1010 10 16.0934 0 0
4:55 pm 16:55 Cloudy 33 0.7 26 -3.1 76 76 NW 28 44 29.86 1011 10 16.0934 0 0
5:15 pm 17:15 Cloudy 33 0.6 26 -3.5 74 74 NW 33 54 29.87 1011 10 16.0934 0 0
5:35 pm 17:35 Cloudy 33 0.6 26 -3.5 74 74 NW 20 31 29.88 1012 10 16.0934 0 0
5:55 pm 17:55 Partly Cloudy 33 0.4 26 -3.6 75 75 NNW 18 30 29.9 1013 10 16.0934 0 0
6:15 pm 18:15 Sunny 32 0 26 -3.5 78 78 NW 16 26 29.92 1013 10 16.0934 0 0
6:35 pm 18:35 Sunny 32 0 25 -3.8 76 76 NW 22 35 29.94 1014 10 16.0934 0 0
6:55 pm 18:55 Clear 31 -0.3 25 -3.9 77 77 NNW 17 28 29.96 1014 10 16.0934 0 0
7:15 pm 19:15 Clear 31 -0.5 25 -4 77 77 NNW 15 24 29.98 1015 10 16.0934 0 0
7:35 pm 19:35 Clear 31 -0.8 25 -4 79 79 NNW 12 19 30 1016 10 16.0934 0 0
7:55 pm 19:55 Clear 30 -1.1 25 -4.1 80 80 NNW 12 19 30.02 1016 10 16.0934 0 0
8:15 pm 20:15 Clear 30 -1.3 25 -4.1 81 81 NNW 13 20 30.03 1017 10 16.0934 0 0
8:35 pm 20:35 Clear 29 -1.7 24 -4.3 83 83 NNW 13 20 30.03 1017 10 16.0934 0 0
8:55 pm 20:55 Clear 29 -1.8 24 -4.5 82 82 NNW 10 17 30.04 1017 10 16.0934 0 0
9:15 pm 21:15 Clear 28 -2 24 -4.6 83 83 NW 9 15 30.04 1017 10 16.0934 0 0
9:35 pm 21:35 Clear 28 -2.5 23 -4.9 84 84 NNW 8 13 30.06 1018 10 16.0934 0 0
9:55 pm 21:55 Clear 26 -3.5 23 -5.2 88 88 WNW 6 9 30.09 1019 10 16.0934 0 0
10:15 pm 22:15 Clear 25 -3.9 22 -5.7 87 87 NW 7 11 30.09 1019 10 16.0934 0 0
10:35 pm 22:35 Clear 25 -3.7 22 -5.5 87 87 NW 9 15 30.08 1019 10 16.0934 0 0
10:55 pm 22:55 Clear 25 -3.9 22 -5.6 88 88 WNW 8 13 30.1 1019 10 16.0934 0 0
11:15 pm 23:15 Clear 25 -4 22 -5.8 87 87 W 7 11 30.12 1020 10 16.0934 0 0
11:35 pm 23:35 Clear 25 -3.8 21 -5.9 86 86 W 7 11 30.11 1020 10 16.0934 0 0
11:55 pm 23:55 Clear 25 -4.1 21 -6.1 86 86 W 7 11 30.12 1020 10 16.0934 0 0

Powered by AerisWeather